CW5260 Weather Reports


time (UTC)temp
F
wind
direction
speed
knots
gust
knots
rain 1hr
in
rain 24hr
in
rain mn
in
humidity
%
barometer
mb
20260510010106 52 185 0.9 3.5 0.00 0.29 0.27 96 1008.7
20260510005606 52 186 0.9 2.6 0.00 0.29 0.27 95 1008.7
20260510005106 52 186 0.0 2.6 0.00 0.29 0.27 95 1008.7
20260510004606 52 186 0.0 0.0 0.00 0.29 0.27 95 1008.6
20260510004107 52 186 0.0 0.0 0.00 0.29 0.27 95 1008.6
20260510003649 52 186 0.0 0.0 0.00 0.29 0.27 95 1008.5
20260510003149 52 186 0.0 0.0 0.00 0.29 0.27 94 1008.5
20260510002607 52 186 0.0 0.0 0.00 0.29 0.27 94 1008.6
20260510002106 52 186 0.0 0.0 0.00 0.29 0.27 94 1008.5
20260510001606 53 186 0.0 0.0 0.00 0.29 0.27 94 1008.4
20260510001106 53 186 0.0 0.0 0.00 0.29 0.27 94 1008.3
20260510000607 53 186 0.0 0.0 0.00 0.29 0.27 93 1008.3
20260510000106 53 186 0.0 0.0 0.00 0.29 0.27 93 1008.3
20260509235606 54 186 0.0 1.7 0.00 0.29 0.27 93 1008.2
20260509235107 54 186 0.0 2.6 0.00 0.29 0.27 93 1008.1
20260509234606 54 186 0.0 1.7 0.00 0.29 0.27 92 1008.1
20260509234106 55 185 0.0 1.7 0.00 0.29 0.27 92 1008.2
20260509233649 55 226 0.9 3.5 0.00 0.29 0.27 92 1008.2
20260509233107 55 259 0.9 4.3 0.00 0.29 0.27 92 1008.2
20260509232607 55 183 0.9 4.3 0.00 0.29 0.27 93 1008.1
20260509232106 56 220 0.0 4.3 0.00 0.29 0.27 94 1008.1
20260509231607 56 213 0.0 1.7 0.00 0.29 0.27 94 1008.1
20260509231107 55 213 0.9 1.7 0.00 0.29 0.27 94 1008.1
20260509230606 55 234 0.0 3.5 0.00 0.29 0.27 94 1008.1
20260509230149 55 206 0.0 2.6 0.00 0.29 0.27 95 1008.2
20260509225607 55 206 0.0 1.7 0.00 0.29 0.27 95 1008.2
20260509225107 55 205 0.0 1.7 0.00 0.29 0.27 94 1008.2
20260509224607 55 202 0.0 2.6 0.00 0.30 0.27 95 1008.1
20260509224149 55 188 0.9 1.7 0.00 0.30 0.27 95 1008.1
20260509223607 55 214 0.9 5.2 0.00 0.30 0.27 95 1008.1
20260509223107 55 215 0.9 4.3 0.00 0.30 0.27 95 1008.2
20260509222649 55 170 0.9 3.5 0.00 0.31 0.27 95 1008.2
20260509222107 55 222 0.9 5.2 0.00 0.31 0.27 95 1008.1
20260509221607 55 165 0.9 4.3 0.00 0.31 0.27 95 1008.3
20260509221149 55 220 0.9 6.1 0.00 0.31 0.27 96 1008.2
20260509220607 55 181 0.9 4.3 0.00 0.31 0.27 96 1008.3
20260509220107 55 174 0.9 2.6 0.00 0.31 0.27 96 1008.3
20260509215607 55 235 0.9 4.3 0.00 0.31 0.27 96 1008.4
20260509215106 55 308 0.9 1.7 0.00 0.31 0.27 96 1008.4
20260509214606 55 166 0.9 2.6 0.00 0.31 0.27 96 1008.4
20260509214106 55 168 0.0 1.7 0.00 0.31 0.27 96 1008.3
20260509213149 55 169 0.9 5.2 0.00 0.31 0.27 96 1008.4
20260509212607 56 221 0.9 4.3 0.00 0.31 0.27 97 1008.4
20260509212107 56 185 0.9 3.5 0.00 0.31 0.27 97 1008.4
20260509211607 55 234 0.0 2.6 0.00 0.31 0.27 97 1008.5
20260509211107 55 275 0.0 1.7 0.00 0.31 0.27 97 1008.6
20260509210606 55 275 0.0 0.9 0.00 0.31 0.27 97 1008.6
20260509210149 55 275 0.9 4.3 0.00 0.31 0.27 97 1008.6
20260509205607 55 277 0.9 3.5 0.00 0.31 0.27 97 1008.6
20260509205149 55 261 0.9 5.2 0.00 0.31 0.27 97 1008.7
20260509204607 55 234 0.9 4.3 0.01 0.31 0.27 97 1008.9
20260509204107 55 264 0.9 3.5 0.01 0.31 0.27 97 1009.0
20260509203606 55 254 0.0 2.6 0.01 0.31 0.27 97 1008.9
20260509203107 55 257 0.0 0.9 0.01 0.31 0.27 97 1008.9
20260509202607 55 257 0.0 2.6 0.01 0.31 0.27 97 1008.9
20260509202107 54 257 0.0 0.9 0.01 0.31 0.27 97 1009.0
20260509201606 54 210 0.9 5.2 0.01 0.31 0.27 97 1009.0
20260509201106 54 193 0.9 6.1 0.01 0.31 0.27 97 1009.1
20260509200606 54 161 0.9 7.0 0.01 0.31 0.27 97 1009.1
20260509200107 54 158 0.9 4.3 0.01 0.31 0.27 97 1009.2
20260509195607 54 217 0.9 6.1 0.02 0.31 0.27 97 1009.2
20260509195107 54 227 0.9 2.6 0.02 0.31 0.27 97 1009.2
20260509194607 54 192 0.9 6.1 0.01 0.30 0.26 97 1009.2
20260509194106 54 234 0.9 5.2 0.01 0.30 0.26 97 1009.2
20260509193649 54 203 0.9 3.5 0.02 0.30 0.26 97 1009.3
20260509193107 54 169 0.0 2.6 0.02 0.30 0.26 97 1009.3
20260509192607 54 168 0.0 0.9 0.02 0.30 0.26 98 1009.3
20260509192107 53 168 0.9 2.6 0.03 0.30 0.26 97 1009.4
20260509191606 53 210 0.0 6.1 0.03 0.30 0.26 97 1009.4
20260509191107 53 232 0.0 1.7 0.04 0.30 0.26 97 1009.4
20260509190606 53 232 0.0 0.9 0.04 0.30 0.26 97 1009.4
20260509190107 53 232 0.0 0.9 0.06 0.30 0.26 97 1009.4
20260509185607 53 232 0.0 0.9 0.06 0.29 0.25 97 1009.5
20260509185107 52 232 0.0 0.0 0.07 0.29 0.25 97 1009.6
20260509184606 52 232 0.0 0.9 0.08 0.29 0.25 97 1009.6
20260509184107 52 209 0.0 4.3 0.08 0.29 0.25 97 1009.7
20260509183607 52 186 0.0 2.6 0.08 0.28 0.24 97 1009.7
20260509183106 52 186 0.0 2.6 0.08 0.28 0.24 97 1009.8
20260509182607 52 209 0.9 3.5 0.08 0.28 0.24 97 1009.9
20260509182106 52 193 0.0 4.3 0.09 0.27 0.23 97 1010.0
20260509181607 52 156 0.9 0.9 0.09 0.27 0.23 96 1009.8
20260509181149 52 191 1.7 5.2 0.09 0.26 0.22 96 1009.9
20260509180607 52 214 1.7 7.8 0.09 0.26 0.22 96 1010.0
20260509180107 52 250 0.9 3.5 0.08 0.24 0.20 96 1010.0
20260509175607 52 211 0.9 6.1 0.07 0.23 0.19 96 1010.0
20260509175107 52 185 0.9 3.5 0.06 0.22 0.18 96 1010.0
20260509174607 52 174 0.9 4.3 0.05 0.21 0.17 96 1009.9
20260509174107 52 159 0.9 4.3 0.06 0.21 0.17 96 1009.9
20260509173607 52 179 0.9 4.3 0.05 0.20 0.16 96 1009.9
20260509173107 52 204 0.9 8.7 0.04 0.20 0.15 96 1009.9
20260509172607 52 210 0.9 6.1 0.04 0.20 0.15 96 1010.0
20260509172107 52 142 0.9 4.3 0.04 0.19 0.14 96 1010.0
20260509171649 53 206 0.0 5.2 0.04 0.19 0.14 96 1009.9
20260509171149 52 193 0.9 4.3 0.04 0.18 0.13 96 1010.0
20260509170607 52 215 0.9 2.6 0.05 0.18 0.13 96 1009.9
20260509170149 52 185 0.9 6.1 0.04 0.17 0.12 96 1010.0
20260509165606 52 166 1.7 9.6 0.05 0.17 0.12 96 1009.9
20260509165107 53 145 0.9 4.3 0.05 0.17 0.12 96 1009.9
20260509164607 52 179 0.9 1.7 0.05 0.17 0.12 96 1009.9
20260509164107 52 195 0.0 5.2 0.05 0.16 0.11 96 1010.0
20260509163606 52 180 0.9 3.5 0.05 0.16 0.11 96 1010.0
20260509163107 52 178 0.9 5.2 0.05 0.16 0.11 96 1010.0
20260509162607 52 213 0.9 3.5 0.05 0.16 0.11 96 1010.1
20260509162107 52 208 0.9 3.5 0.04 0.15 0.10 96 1010.2
20260509161607 52 218 0.9 2.6 0.05 0.15 0.10 96 1010.1
20260509161107 52 158 0.9 4.3 0.04 0.14 0.09 95 1010.2
20260509160607 52 138 0.9 5.2 0.03 0.13 0.08 95 1010.3
20260509160149 53 200 0.9 5.2 0.03 0.13 0.08 95 1010.3
20260509155607 53 169 0.9 3.5 0.02 0.12 0.07 95 1010.4
20260509155107 53 222 0.9 4.3 0.03 0.12 0.07 96 1010.3
20260509154607 53 274 0.9 3.5 0.03 0.12 0.07 96 1010.4
20260509154107 53 192 0.9 3.5 0.02 0.11 0.06 96 1010.4
20260509153607 53 178 0.9 4.3 0.02 0.11 0.06 95 1010.4
20260509153107 53 184 0.9 5.2 0.03 0.11 0.06 95 1010.4
20260509152607 53 207 0.0 4.3 0.03 0.11 0.06 96 1010.3
20260509152149 53 169 0.0 0.9 0.02 0.11 0.06 95 1010.3
20260509151607 53 169 0.0 3.5 0.02 0.10 0.05 95 1010.4
20260509151107 53 201 0.0 2.6 0.02 0.10 0.05 95 1010.3
20260509150607 53 206 0.0 0.0 0.03 0.10 0.05 95 1010.3
20260509150107 53 207 0.0 0.9 0.03 0.10 0.05 95 1010.3
20260509145607 53 167 0.0 4.3 0.02 0.10 0.05 95 1010.3
20260509144649 53 189 0.0 3.5 0.02 0.09 0.04 95 1010.4
20260509144106 53 223 0.0 3.5 0.02 0.09 0.04 95 1010.4
20260509143607 53 227 0.0 2.6 0.02 0.09 0.04 95 1010.4
20260509143107 53 221 0.0 3.5 0.01 0.08 0.03 95 1010.5
20260509142650 53 237 0.0 0.9 0.02 0.08 0.03 95 1010.4
20260509142149 53 227 0.0 4.3 0.02 0.08 0.03 95 1010.4
20260509141607 53 174 0.0 2.6 0.02 0.08 0.03 96 1010.3
20260509141107 53 174 0.0 0.9 0.02 0.08 0.03 95 1010.2
20260509140607 52 173 0.0 0.9 0.01 0.07 0.02 95 1010.0
20260509140115 53 173 0.0 0.9 0.01 0.07 0.02 95 1010.0
20260509135649 52 173 0.0 0.9 0.01 0.07 0.02 95 1009.9
20260509135107 52 173 0.0 0.9 0.01 0.07 0.02 95 1010.1
20260509134607 52 173 0.0 1.7 0.01 0.07 0.02 95 1010.2
20260509134107 52 173 0.0 0.0 0.01 0.07 0.02 95 1010.2
20260509133607 52 171 0.0 2.6 0.01 0.07 0.02 95 1010.4
20260509133150 52 172 0.0 0.9 0.01 0.07 0.02 95 1010.5
20260509132607 52 173 0.0 0.0 0.00 0.06 0.01 95 1010.5
20260509132107 52 167 0.0 1.7 0.00 0.06 0.01 95 1010.5
20260509131607 52 153 0.0 0.0 0.00 0.06 0.01 96 1010.5
20260509131107 52 153 0.0 0.9 0.00 0.06 0.01 96 1010.4
20260509130607 52 153 0.0 0.9 0.00 0.06 0.01 96 1010.4
20260509130107 52 153 0.0 0.9 0.00 0.06 0.01 96 1010.4
20260509125649 52 153 0.0 0.0 0.00 0.06 0.01 96 1010.3
20260509125107 52 153 0.0 0.0 0.00 0.06 0.01 96 1010.4
20260509124649 52 153 0.0 0.0 0.00 0.06 0.01 96 1010.3
20260509124107 51 153 0.0 0.9 0.00 0.06 0.01 96 1010.3
20260509123149 51 153 0.0 0.0 0.00 0.06 0.01 96 1010.0
20260509122607 51 153 0.0 0.0 0.00 0.06 0.01 96 1010.1
20260509122150 51 153 0.0 0.0 0.00 0.06 0.01 96 1009.9
20260509121607 51 153 0.0 0.0 0.00 0.06 0.01 95 1010.0
20260509121107 51 153 0.0 0.9 0.00 0.06 0.01 96 1010.0
20260509120607 51 153 0.0 2.6 0.00 0.06 0.01 96 1010.0
20260509120107 50 153 0.0 1.7 0.00 0.06 0.01 96 1010.0
20260509115607 50 153 0.0 0.9 0.00 0.06 0.01 95 1010.0
20260509115107 50 153 0.0 0.9 0.00 0.06 0.01 95 1009.8
20260509114607 50 153 0.0 0.9 0.01 0.06 0.01 95 1009.8
20260509114107 49 153 0.9 1.7 0.01 0.06 0.01 95 1009.7
20260509113607 49 152 0.9 1.7 0.01 0.06 0.01 96 1009.7
20260509113107 49 152 0.9 3.5 0.01 0.06 0.01 95 1009.7
20260509112607 49 152 0.9 2.6 0.01 0.06 0.01 96 1009.8
20260509112149 49 153 0.9 1.7 0.01 0.06 0.01 96 1009.9
20260509111607 49 153 0.9 2.6 0.01 0.06 0.01 96 1009.9
20260509111107 48 154 0.9 2.6 0.01 0.06 0.01 96 1009.9
20260509110607 48 157 0.9 3.5 0.01 0.06 0.01 96 1009.9
20260509110149 48 163 0.9 1.7 0.01 0.06 0.01 96 1009.9
20260509105649 48 301 0.0 1.7 0.01 0.06 0.01 96 1009.9
20260509105107 48 302 0.0 1.7 0.01 0.06 0.01 96 1010.1
20260509104650 48 302 0.0 1.7 0.00 0.05 0.00 96 1010.1
20260509104109 48 302 0.0 0.0 0.00 0.05 0.00 96 1010.1
20260509103607 48 302 0.0 0.0 0.00 0.05 0.00 96 1010.0
20260509103107 48 302 0.0 0.0 0.00 0.05 0.00 96 1010.2
20260509102607 48 302 0.0 0.0 0.00 0.05 0.00 96 1010.2
20260509102107 48 302 0.0 0.0 0.00 0.05 0.00 96 1010.1
20260509101607 48 302 0.0 0.0 0.00 0.05 0.00 96 1010.3
20260509101149 48 302 0.0 0.0 0.00 0.05 0.00 96 1010.2
20260509100607 48 302 0.0 0.9 0.00 0.05 0.00 96 1010.1
20260509100107 48 296 0.0 3.5 0.00 0.05 0.00 96 1010.3
20260509095650 48 297 0.9 4.3 0.00 0.05 0.00 96 1010.2
20260509095107 48 299 0.9 2.6 0.00 0.05 0.00 96 1010.4
20260509094607 48 299 0.9 3.5 0.00 0.05 0.00 96 1010.4
20260509094107 48 300 0.9 0.9 0.00 0.05 0.00 96 1010.2
20260509093607 48 299 0.9 3.5 0.00 0.05 0.00 96 1010.3
20260509093107 48 299 1.7 3.5 0.00 0.05 0.00 96 1010.3
20260509092649 48 183 1.7 4.3 0.00 0.05 0.00 96 1009.9
20260509092107 48 238 0.9 3.5 0.00 0.05 0.00 96 1010.4
20260509091607 48 184 0.9 1.7 0.00 0.05 0.00 95 1010.0
20260509091107 48 199 0.0 2.6 0.00 0.05 0.00 96 1010.1
20260509090649 48 200 0.0 0.9 0.00 0.05 0.00 96 1010.1
20260509090150 48 200 0.0 0.9 0.00 0.05 0.00 95 1010.1
20260509085607 48 200 0.0 0.9 0.00 0.05 0.00 95 1010.1
20260509085108 48 200 0.0 0.0 0.00 0.05 0.00 95 1010.3
20260509084607 48 200 0.0 0.0 0.00 0.05 0.00 96 1010.4
20260509084149 48 200 0.0 0.0 0.00 0.05 0.00 96 1010.4
20260509083607 48 200 0.0 0.0 0.00 0.05 0.00 95 1010.4
20260509083107 48 200 0.0 0.0 0.00 0.05 0.00 95 1010.4
20260509082607 48 200 0.0 0.0 0.00 0.05 0.00 95 1010.5
20260509082108 48 200 0.0 0.0 0.00 0.05 0.00 95 1010.5
20260509081607 48 200 0.0 0.0 0.00 0.06 0.00 95 1010.6
20260509080607 48 200 0.0 0.0 0.00 0.06 0.00 95 1010.8
20260509080107 48 200 0.0 0.0 0.00 0.06 0.00 95 1010.8
20260509075607 48 200 0.0 0.0 0.00 0.06 0.00 95 1011.0
20260509075108 48 200 0.0 0.0 0.00 0.06 0.00 95 1011.1
20260509074607 48 200 0.0 0.0 0.00 0.06 0.00 95 1011.2
20260509074107 48 200 0.0 0.0 0.00 0.06 0.00 95 1011.2
20260509073607 48 200 0.0 0.0 0.00 0.06 0.00 95 1011.1
20260509073107 48 200 0.0 0.0 0.00 0.06 0.00 95 1011.2
20260509072649 48 200 0.0 0.0 0.00 0.06 0.00 95 1011.1
20260509072150 48 200 0.0 0.0 0.00 0.06 0.00 95 1011.2
20260509071607 48 200 0.0 1.7 0.00 0.06 0.00 95 1011.0
20260509071107 48 200 0.0 0.9 0.00 0.06 0.00 94 1011.1
20260509070607 48 200 0.0 0.0 0.00 0.06 0.00 94 1011.0
20260509070149 48 200 0.0 0.9 0.00 0.06 0.00 94 1011.0
20260509065607 48 200 0.0 0.0 0.00 0.06 0.00 94 1011.2
20260509065149 48 200 0.0 0.0 0.00 0.06 0.00 94 1011.3
20260509064607 48 200 0.0 0.0 0.00 0.06 0.00 95 1011.4
20260509064107 48 200 0.0 0.0 0.00 0.06 0.00 95 1011.5
20260509063607 48 200 0.0 0.0 0.00 0.06 0.00 95 1011.5
20260509063149 48 200 0.0 0.0 0.00 0.06 0.00 95 1011.5
20260509062607 48 200 0.0 0.0 0.00 0.06 0.00 95 1011.5
20260509062108 48 200 0.0 0.0 0.00 0.06 0.00 95 1011.6
20260509061607 49 200 0.0 0.0 0.00 0.06 0.00 94 1011.5
20260509061107 49 200 0.0 0.0 0.00 0.06 0.00 94 1011.4
20260509060607 49 200 0.0 0.0 0.00 0.06 0.00 95 1011.6
20260509060107 49 200 0.0 0.0 0.00 0.06 0.00 95 1011.6
20260509055607 49 200 0.0 0.0 0.00 0.06 0.00 95 1011.8
20260509055107 49 200 0.0 0.0 0.00 0.06 0.00 95 1011.9
20260509054607 49 200 0.0 0.0 0.00 0.06 0.00 95 1011.9
20260509054150 49 200 0.0 0.0 0.00 0.06 0.00 95 1012.0
20260509053608 49 200 0.0 0.0 0.00 0.06 0.00 95 1012.0
20260509053108 49 200 0.0 0.9 0.00 0.06 0.00 95 1012.2
20260509052608 49 200 0.0 1.7 0.00 0.06 0.00 95 1012.2
20260509052107 49 200 0.0 1.7 0.00 0.06 0.00 95 1012.4
20260509051607 49 200 0.0 0.9 0.00 0.06 0.00 95 1012.5
20260509051108 49 205 0.0 1.7 0.00 0.06 0.00 95 1012.6
20260509050607 49 270 0.0 0.0 0.00 0.06 0.00 95 1012.6
20260509050107 49 270 0.0 0.0 0.00 0.06 0.00 95 1012.5
20260509045607 49 270 0.0 0.0 0.00 0.06 0.00 95 1011.9
20260509045107 48 270 0.0 0.0 0.00 0.06 0.00 95 1011.8
20260509044607 48 270 0.0 0.0 0.00 0.06 0.00 95 1011.8
20260509044150 48 270 0.0 0.0 0.00 0.06 0.00 95 1011.8
20260509043649 48 270 0.0 0.0 0.00 0.06 0.00 94 1011.8
20260509043107 48 270 0.0 0.0 0.00 0.06 0.00 94 1011.9
20260509042608 48 270 0.0 0.0 0.00 0.06 0.00 94 1012.0
20260509042107 48 270 0.0 0.0 0.00 0.06 0.00 94 1012.1
20260509041107 48 270 0.0 0.0 0.01 0.09 0.00 94 1011.9
20260509040607 48 270 0.0 0.0 0.01 0.10 0.00 94 1011.8
20260509040107 48 270 0.0 0.0 0.01 0.10 0.00 93 1011.6
20260509035649 49 270 0.0 0.0 0.01 0.10 0.10 93 1011.6
20260509035108 49 270 0.0 0.0 0.01 0.10 0.10 93 1011.5
20260509034608 49 270 0.0 0.0 0.01 0.10 0.10 93 1011.7
20260509034107 49 270 0.0 0.0 0.01 0.10 0.10 93 1011.8
20260509033650 49 270 0.0 0.0 0.01 0.10 0.10 93 1011.9
20260509032607 49 270 0.0 0.0 0.02 0.10 0.10 93 1012.1
20260509032107 49 270 0.0 0.0 0.02 0.10 0.10 92 1012.0
20260509031607 49 270 0.0 0.0 0.01 0.09 0.09 92 1012.0
20260509031107 49 271 0.0 0.0 0.01 0.09 0.09 92 1012.1
20260509030608 49 271 0.0 0.0 0.01 0.09 0.09 92 1012.1
20260509030107 49 270 0.0 0.0 0.01 0.09 0.09 91 1012.1
20260509025607 49 271 0.0 0.0 0.01 0.09 0.09 91 1012.1
20260509025108 49 271 0.0 0.0 0.01 0.09 0.09 91 1012.1
20260509024607 49 271 0.0 0.0 0.01 0.09 0.09 91 1012.0
20260509024107 49 270 0.0 0.0 0.01 0.09 0.09 90 1012.2
20260509023607 49 270 0.0 0.0 0.01 0.09 0.09 90 1012.2
20260509023150 49 270 0.0 0.0 0.00 0.08 0.08 90 1012.3
20260509022649 49 270 0.0 0.0 0.00 0.08 0.08 90 1012.3
20260509022107 49 270 0.0 0.9 0.00 0.08 0.08 90 1012.2
20260509021608 49 271 0.0 0.0 0.00 0.08 0.08 90 1012.0
20260509021107 49 270 0.0 0.0 0.00 0.08 0.08 90 1012.0
20260509020608 49 270 0.0 0.0 0.00 0.08 0.08 90 1012.0
20260509020113 49 271 0.0 0.0 0.00 0.08 0.08 90 1011.9
20260509015607 49 271 0.0 0.0 0.00 0.08 0.08 90 1011.9
20260509015149 49 271 0.0 0.0 0.00 0.08 0.08 90 1011.9
20260509014650 49 270 0.0 0.0 0.00 0.08 0.08 90 1011.9
20260509014108 49 270 0.0 0.0 0.00 0.08 0.08 90 1011.8
20260509013607 49 270 0.0 0.0 0.00 0.08 0.08 91 1011.8
20260509013107 49 270 0.0 0.0 0.00 0.08 0.08 91 1011.8
20260509012608 49 271 0.0 0.0 0.00 0.08 0.08 91 1011.8
20260509012108 49 270 0.0 0.0 0.00 0.08 0.08 91 1011.7
20260509011608 49 271 0.0 0.0 0.00 0.08 0.08 90 1011.6
20260509011150 49 271 0.0 0.0 0.00 0.08 0.08 90 1011.6